Weather History for Clarion, IA

Change the Weather History Date:

Wednesday, December 25, 2013

  Actual Average Record
Temperature  
Mean Temperature 22 °F -  
Max Temperature 30 °F 22 °F 47 °F (1982)
Min Temperature 14 °F 6 °F -22 °F (1983)
Degree Days  
Heating Degree Days 43    
Moisture  
Dew Point 18 °F    
Average Humidity 87    
Maximum Humidity 100    
Minimum Humidity 73    
Precipitation  
Precipitation 0.00 in - - ()
Sea Level Pressure  
Sea Level Pressure 30.15 in    
Wind  
Wind Speed 10 mph (West)    
Max Wind Speed 20 mph    
Max Gust Speed 30 mph    
Visibility 8 miles    
Events Snow    
Averages and records for this station are not official NWS values.
T = Trace of Precipitation, MM = Missing Value Source: NWS Daily Summary

Daily Weather History Graph

Daily Weather History Graph

Search for Another Location

Airport:

Trip Planner

Search our weather history database for the weather conditions in past years. The results will help you decide how hot, cold, wet, or windy it might be!

Date:

Astronomy

Dec. 25, 2013 Rise Set
Actual Time 7:44 AM CST 4:46 PM CST
Civil Twilight 7:11 AM CST 5:18 PM CST
Nautical Twilight 6:36 AM CST 5:54 PM CST
Astronomical Twilight 6:01 AM CST 6:29 PM CST
Moon 12:04 AM CST (12/25) 11:57 AM CST (12/25)
Length of Visible Light 10h 07m
Length of Day
9h 02m
Waning Gibbous, 48% of the Moon is Illuminated
Dec 25
Waning Gibbous
Jan 1
New
Jan 7
First Quarter
Jan 15
Full
Jan 23
Last Quarter

Hourly Weather History & Observations

Time (CST) Temp. Windchill Dew Point Humidity Pressure Visibility Wind Dir Wind Speed Gust Speed Precip Events Conditions
12:15 AM 14.0 °F 2.9 °F 8.6 °F 79% 30.14 in 10.0 mi South 8.1 mph - N/A   Overcast
12:35 AM 14.0 °F 2.9 °F 10.4 °F 86% 30.14 in 10.0 mi SSW 8.1 mph - N/A   Overcast
12:55 AM 15.8 °F 5.1 °F 10.4 °F 79% 30.14 in 10.0 mi SSW 8.1 mph - N/A   Overcast
1:15 AM 15.8 °F 4.2 °F 12.2 °F 86% 30.14 in 10.0 mi SW 9.2 mph - N/A   Overcast
1:35 AM 15.8 °F 4.2 °F 12.2 °F 86% 30.14 in 10.0 mi SSW 9.2 mph - N/A   Overcast
1:55 AM 15.8 °F 4.2 °F 12.2 °F 86% 30.13 in 10.0 mi SW 9.2 mph - N/A   Overcast
2:15 AM 17.6 °F 7.3 °F 12.2 °F 79% 30.14 in 10.0 mi SW 8.1 mph - N/A   Overcast
2:35 AM 17.6 °F 8.2 °F 14.0 °F 86% 30.14 in 10.0 mi WSW 6.9 mph - N/A   Overcast
2:55 AM 17.6 °F 8.2 °F 14.0 °F 86% 30.15 in 8.0 mi WSW 6.9 mph - N/A   Overcast
3:15 AM 17.6 °F 7.3 °F 15.8 °F 93% 30.15 in 7.0 mi West 8.1 mph - N/A   Overcast
3:35 AM 19.4 °F 7.9 °F 15.8 °F 86% 30.14 in 5.0 mi WNW 10.4 mph - N/A   Overcast
3:55 AM 19.4 °F 9.5 °F 17.6 °F 93% 30.13 in 5.0 mi WNW 8.1 mph - N/A   Overcast
4:15 AM 19.4 °F 6.0 °F 17.6 °F 93% 30.14 in 5.0 mi West 13.8 mph - N/A   Overcast
4:35 AM 19.4 °F 6.6 °F 17.6 °F 93% 30.14 in 5.0 mi WNW 12.7 mph - N/A   Overcast
4:55 AM 19.4 °F 10.4 °F 15.8 °F 86% 30.12 in 6.0 mi West 6.9 mph - N/A   Overcast
5:15 AM 19.4 °F 6.0 °F 15.8 °F 86% 30.14 in 6.0 mi WNW 13.8 mph - N/A   Overcast
5:35 AM 19.4 °F 9.5 °F 15.8 °F 86% 30.14 in 9.0 mi NW 8.1 mph 17.3 mph N/A   Overcast
5:55 AM 19.4 °F 12.8 °F 15.8 °F 86% 30.14 in 9.0 mi SW 4.6 mph - N/A   Overcast
6:15 AM 19.4 °F 10.4 °F 15.8 °F 86% 30.13 in 10.0 mi WSW 6.9 mph - N/A   Overcast
6:35 AM 19.4 °F 10.4 °F 15.8 °F 86% 30.14 in 10.0 mi SW 6.9 mph - N/A   Overcast
6:55 AM 19.4 °F 7.9 °F 17.6 °F 93% 30.12 in 10.0 mi SSW 10.4 mph - N/A   Overcast
7:15 AM 19.4 °F 8.6 °F 15.8 °F 86% 30.12 in 9.0 mi South 9.2 mph - N/A   Overcast
7:35 AM 19.4 °F 7.9 °F 17.6 °F 93% 30.11 in 7.0 mi SSW 10.4 mph - N/A   Overcast
7:55 AM 19.4 °F 7.9 °F 17.6 °F 93% 30.12 in 6.0 mi SSW 10.4 mph - N/A   Mostly Cloudy
8:15 AM 19.4 °F 6.6 °F 17.6 °F 93% 30.11 in 7.0 mi SSW 12.7 mph - N/A   Overcast
8:35 AM 19.4 °F 7.2 °F 17.6 °F 93% 30.12 in 5.0 mi SW 11.5 mph - N/A   Overcast
8:55 AM 19.4 °F 5.0 °F 17.6 °F 93% 30.13 in 2.0 mi SW 16.1 mph - N/A Snow Light Snow
9:15 AM 19.4 °F 6.0 °F 17.6 °F 93% 30.12 in 4.0 mi SSW 13.8 mph - N/A   Overcast
9:35 AM 21.2 °F 7.8 °F 17.6 °F 86% 30.12 in 7.0 mi SSW 15.0 mph - N/A   Mostly Cloudy
9:55 AM 21.2 °F 8.9 °F 19.4 °F 93% 30.13 in 6.0 mi SW 12.7 mph - N/A   Overcast
10:15 AM 21.2 °F 8.3 °F 19.4 °F 93% 30.13 in 3.0 mi SW 13.8 mph 20.7 mph N/A   Overcast
10:35 AM 23.0 °F 10.1 °F 21.2 °F 93% 30.13 in 0.8 mi SW 15.0 mph - N/A Snow Light Snow
10:55 AM 23.0 °F 10.6 °F 21.2 °F 93% 30.12 in 0.8 mi SW 13.8 mph - N/A Snow Light Snow
11:15 AM 23.0 °F 11.7 °F 23.0 °F 100% 30.12 in 1.0 mi SW 11.5 mph - N/A Snow Light Snow
11:35 AM 24.8 °F 13.4 °F 23.0 °F 93% 30.11 in 1.0 mi WSW 12.7 mph - N/A Snow Light Snow
11:55 AM 24.8 °F 13.4 °F 23.0 °F 93% 30.11 in 1.5 mi WSW 12.7 mph - N/A Snow Light Snow
12:15 PM 26.6 °F 15.2 °F 24.8 °F 93% 30.11 in 4.0 mi West 13.8 mph - N/A   Mostly Cloudy
12:35 PM 26.6 °F 15.2 °F 24.8 °F 93% 30.11 in 4.0 mi West 13.8 mph - N/A Snow Light Snow
12:55 PM 26.6 °F 15.7 °F 24.8 °F 93% 30.11 in 6.0 mi WNW 12.7 mph - N/A   Overcast
1:15 PM 28.4 °F 18.0 °F 24.8 °F 86% 30.10 in 8.0 mi WNW 12.7 mph - N/A   Overcast
1:35 PM 28.4 °F 17.5 °F 24.8 °F 86% 30.10 in 9.0 mi WNW 13.8 mph - N/A   Overcast
1:55 PM 28.4 °F 17.5 °F 26.6 °F 93% 30.10 in 9.0 mi WNW 13.8 mph - N/A   Overcast
2:15 PM 30.2 °F 19.8 °F 26.6 °F 86% 30.11 in 9.0 mi WNW 13.8 mph - N/A   Overcast
2:35 PM 30.2 °F 18.9 °F 26.6 °F 86% 30.11 in 10.0 mi WNW 16.1 mph - N/A   Overcast
2:55 PM 30.2 °F 18.5 °F 26.6 °F 86% 30.12 in 10.0 mi WNW 17.3 mph - N/A   Overcast
3:15 PM 30.2 °F 18.1 °F 26.6 °F 86% 30.13 in 9.0 mi NW 18.4 mph - N/A   Overcast
3:35 PM 28.4 °F 15.4 °F 24.8 °F 86% 30.15 in 3.0 mi NW 19.6 mph 29.9 mph N/A   Overcast
3:55 PM 28.4 °F 17.0 °F 24.8 °F 86% 30.15 in 10.0 mi NW 15.0 mph 20.7 mph N/A   Overcast
4:15 PM 26.6 °F 13.8 °F 21.2 °F 80% 30.16 in 10.0 mi NW 17.3 mph - N/A   Scattered Clouds
4:35 PM 23.0 °F 13.1 °F 19.4 °F 86% 30.16 in 10.0 mi NW 9.2 mph - N/A   Clear
4:55 PM 21.2 °F 10.9 °F 17.6 °F 86% 30.16 in 10.0 mi NW 9.2 mph - N/A   Clear
5:15 PM 19.4 °F 10.4 °F 17.6 °F 93% 30.16 in 10.0 mi WNW 6.9 mph - N/A   Clear
5:35 PM 17.6 °F 5.0 °F 15.8 °F 93% 30.17 in 10.0 mi WNW 11.5 mph - N/A   Partly Cloudy
5:55 PM 21.2 °F 8.9 °F 19.4 °F 93% 30.18 in 10.0 mi NW 12.7 mph - N/A   Mostly Cloudy
6:15 PM 23.0 °F 10.6 °F 19.4 °F 86% 30.18 in 10.0 mi WNW 13.8 mph - N/A   Mostly Cloudy
6:35 PM 21.2 °F 7.8 °F 15.8 °F 80% 30.19 in 10.0 mi WNW 15.0 mph - N/A   Clear
6:55 PM 19.4 °F 5.5 °F 12.2 °F 74% 30.19 in 10.0 mi NW 15.0 mph - N/A   Clear
7:15 PM 19.4 °F 5.0 °F 12.2 °F 74% 30.20 in 10.0 mi WNW 16.1 mph - N/A   Clear
7:35 PM 17.6 °F 4.3 °F 12.2 °F 79% 30.20 in 10.0 mi WNW 12.7 mph - N/A   Clear
7:55 PM 17.6 °F 5.7 °F 10.4 °F 73% 30.20 in 10.0 mi WNW 10.4 mph - N/A   Clear
8:15 PM 15.8 °F 4.2 °F 10.4 °F 79% 30.20 in 10.0 mi WNW 9.2 mph - N/A   Clear
8:35 PM 17.6 °F 5.7 °F 12.2 °F 79% 30.20 in 10.0 mi WNW 10.4 mph - N/A   Mostly Cloudy
8:55 PM 21.2 °F 10.1 °F 14.0 °F 74% 30.19 in 10.0 mi WNW 10.4 mph - N/A   Overcast
9:15 PM 21.2 °F 10.1 °F 15.8 °F 80% 30.20 in 10.0 mi WNW 10.4 mph - N/A   Overcast
9:35 PM 21.2 °F 10.9 °F 15.8 °F 80% 30.20 in 10.0 mi WNW 9.2 mph - N/A   Overcast
9:55 PM 21.2 °F 12.6 °F 17.6 °F 86% 30.19 in 10.0 mi West 6.9 mph - N/A   Overcast
10:15 PM 21.2 °F 12.6 °F 17.6 °F 86% 30.18 in 10.0 mi West 6.9 mph - N/A   Overcast
10:35 PM 23.0 °F 14.7 °F 19.4 °F 86% 30.17 in 10.0 mi SW 6.9 mph - N/A   Overcast
10:55 PM 23.0 °F 17.0 °F 19.4 °F 86% 30.18 in 10.0 mi WSW 4.6 mph - N/A   Overcast
11:15 PM 23.0 °F 14.7 °F 19.4 °F 86% 30.18 in 10.0 mi SW 6.9 mph - N/A   Overcast
11:35 PM 23.0 °F 14.7 °F 19.4 °F 86% 30.18 in 10.0 mi WSW 6.9 mph - N/A   Overcast
11:55 PM 21.2 °F 12.6 °F 17.6 °F 86% 30.17 in 10.0 mi SSW 6.9 mph - N/A   Overcast